{"data":{"norad_id":60470,"intl_designator":"2024-149C","name":"PHISAT 2","alt_names":[],"object_type":"PAYLOAD","status":"ACTIVE","operator":null,"country":"UK","launch_date":"2024-08-16","launch_site_code":"AFWTR","launch_vehicle":null,"mission":null,"orbit_class":"UNKNOWN","rcs_meters":null,"size_class":null,"mass_kg":null,"dimensions":null,"purposes":[],"wikipedia_slug":null,"has_3d_model":false,"image_url":null,"decayed_at":null,"tle_current":{"epoch":"2026-05-25T02:30:22.709664Z","epoch_age_seconds":66051,"freshness":"FRESH","line1":"1 60470U 24149C   26145.10442951  .00006094  00000+0  20818-3 0  9991","line2":"2 60470  97.3755 224.4557 0001234  39.5889 320.5442 15.30666786 98461","mean_motion":15.30666786,"eccentricity":0.0001234,"inclination_deg":97.3755,"raan_deg":224.4557,"arg_perigee_deg":39.5889,"mean_anomaly_deg":320.5442,"bstar":0.00020818,"rev_number":9846,"period_min":94.076647717892,"perigee_km":472.9761530632,"apogee_km":474.66721646661,"semimajor_km":6851.9586847649,"source":"CELESTRAK","updated_at":"2026-05-25T13:38:02.087804Z"}}}